This demonstration page uses our WeatherBlox Daily Observations layout. Learn more.

Left ArrowRight Arrow

41.12389, -100.76542

Hourly Observations for April 1, 2020

Temp ( °F °C ) Dew Point ( °F °C ) Humidity (%) Winds ( mph kmh ) Pressure ( in mb ) Visibility ( mi km ) Precip ( " mm )
12:53 am 00:53 Clear 55 12.8 37 2.8 51 51 SW 10 17 29.77 1008 10 16 0.00 0.00
1:53 am 01:53 Clear 53 11.7 37 2.8 55 55 WSW 6 9 29.78 1008 10 16 0.00 0.00
2:53 am 02:53 Clear 51 10.6 38 3.3 61 61 SW 6 9 29.76 1008 10 16 0.00 0.00
3:53 am 03:53 Clear 44 6.7 36 2.2 73 73 Calm 29.77 1008 10 16 0.00 0.00
4:53 am 04:53 Clear 42 5.6 37 2.8 82 82 S 6 9 29.77 1008 10 16 0.00 0.00
5:53 am 05:53 Clear 38 3.3 34 1.1 86 86 SE 6 9 29.76 1008 10 16 0.00 0.00
6:53 am 06:53 Clear 38 3.3 34 1.1 86 86 SE 9 15 29.75 1008 10 16 0.00 0.00
7:53 am 07:53 Sunny 38 3.3 35 1.7 89 89 SE 7 11 29.74 1007 10 16 0.00 0.00
8:53 am 08:53 Sunny 46 7.8 40 4.4 79 79 SE 6 9 29.73 1007 10 16 0.00 0.00
9:53 am 09:53 Sunny 53 11.7 40 4.4 61 61 SSE 8 13 29.71 1006 10 16 0.00 0.00
10:53 am 10:53 Sunny 58 14.4 43 6.1 58 58 S 9 15 29.70 1006 10 16 0.00 0.00
11:53 am 11:53 Sunny 64 17.8 45 7.2 50 50 SSE 12 19 29.66 1004 10 16 0.00 0.00
12:53 pm 12:53 Sunny 67 19.4 45 7.2 45 45 S 14 22 29.63 1003 10 16 0.00 0.00
1:53 pm 13:53 Sunny 66 18.9 45 7.2 47 47 SSE 18 30 29.60 1003 10 16 0.00 0.00
2:53 pm 14:53 Sunny 65 18.3 45 7.2 49 49 S 10 17 29.62 1003 10 16 0.00 0.00
3:53 pm 15:53 Sunny 63 17.2 45 7.2 52 52 SSW 8 13 29.62 1003 10 16 0.00 0.00
4:53 pm 16:53 Sunny 62 16.7 45 7.2 54 54 SSE 10 17 29.62 1003 10 16 0.00 0.00
5:53 pm 17:53 Sunny 61 16.1 45 7.2 56 56 S 8 13 29.63 1004 10 16 0.00 0.00
6:53 pm 18:53 Sunny 60 15.6 45 7.2 58 58 Calm 29.65 1004 10 16 0.00 0.00
7:53 pm 19:53 Sunny 56 13.3 44 6.7 65 65 NE 8 13 29.66 1004 10 16 0.00 0.00
8:53 pm 20:53 Clear 55 12.8 44 6.7 67 67 NNE 14 22 29.68 1005 10 16 0.00 0.00
9:53 pm 21:53 Clear 46 7.8 39 3.9 77 77 NE 25 41 29.72 1006 10 16 0.00 0.00
10:53 pm 22:53 Mostly Clear 43 6.1 37 2.8 80 80 NE 24 39 29.73 1007 10 16 0.00 0.00
11:13 pm 23:13 Mostly Cloudy 42 5.6 36 2.2 79 79 NE 18 30 29.79 1009 10 16 0.00 0.00
11:53 pm 23:53 Cloudy 41 5 34 1.1 76 76 NE 20 31 29.75 1007 10 16 0.00 0.00

Powered by AerisWeather